TimeCDT,TemperatureF,Dew PointF,Humidity,Sea Level PressureIn,VisibilityMPH,Wind Direction,Wind SpeedMPH,Gust SpeedMPH,PrecipitationIn,Events,Conditions,WindDirDegrees,DateUTC
12:51 AM,45.0,36.0,71,30.14,10.0,North,6.9,-,N/A,,Clear,360,2013-04-19 05:51:00
1:51 AM,42.1,36.0,79,30.15,10.0,NNW,6.9,-,N/A,,Clear,340,2013-04-19 06:51:00
2:51 AM,41.0,34.0,76,30.18,10.0,Calm,Calm,-,N/A,,Clear,0,2013-04-19 07:51:00
3:51 AM,35.1,33.1,92,30.20,10.0,Calm,Calm,-,N/A,,Clear,0,2013-04-19 08:51:00
4:51 AM,34.0,32.0,92,30.23,10.0,West,5.8,-,N/A,,Clear,260,2013-04-19 09:51:00
5:51 AM,35.1,33.1,92,30.25,10.0,West,6.9,-,N/A,,Clear,270,2013-04-19 10:51:00
6:51 AM,35.1,32.0,89,30.26,10.0,West,6.9,-,N/A,,Clear,280,2013-04-19 11:51:00
7:51 AM,39.9,36.0,86,30.27,10.0,West,5.8,-,N/A,,Clear,280,2013-04-19 12:51:00
8:51 AM,46.9,36.0,66,30.28,10.0,WNW,9.2,-,N/A,,Clear,300,2013-04-19 13:51:00
9:51 AM,51.1,30.9,46,30.29,10.0,NNW,18.4,25.3,N/A,,Clear,340,2013-04-19 14:51:00
10:51 AM,54.0,28.9,38,30.30,10.0,NNW,17.3,23.0,N/A,,Clear,330,2013-04-19 15:51:00
11:51 AM,55.9,30.0,37,30.30,10.0,NNW,12.7,18.4,N/A,,Clear,330,2013-04-19 16:51:00
12:51 PM,59.0,28.9,32,30.28,10.0,NNW,16.1,-,N/A,,Clear,340,2013-04-19 17:51:00
1:51 PM,61.0,30.0,31,30.26,10.0,NNW,11.5,-,N/A,,Clear,340,2013-04-19 18:51:00
2:51 PM,62.1,28.0,28,30.24,10.0,NNW,12.7,23.0,N/A,,Clear,330,2013-04-19 19:51:00
3:51 PM,64.0,28.0,26,30.21,10.0,North,12.7,19.6,N/A,,Clear,350,2013-04-19 20:51:00
4:51 PM,64.0,25.0,23,30.19,10.0,NNW,15.0,-,N/A,,Clear,340,2013-04-19 21:51:00
5:51 PM,64.0,26.1,24,30.17,10.0,North,13.8,20.7,N/A,,Clear,360,2013-04-19 22:51:00
6:51 PM,62.1,27.0,26,30.17,10.0,North,9.2,-,N/A,,Clear,350,2013-04-19 23:51:00
7:51 PM,55.9,35.1,45,30.17,10.0,NNE,3.5,-,N/A,,Clear,20,2013-04-20 00:51:00
8:51 PM,50.0,36.0,59,30.18,10.0,ENE,4.6,-,N/A,,Clear,70,2013-04-20 01:51:00
9:51 PM,46.0,34.0,63,30.20,10.0,SE,3.5,-,N/A,,Clear,130,2013-04-20 02:51:00
10:51 PM,45.0,34.0,65,30.21,10.0,SSE,4.6,-,N/A,,Clear,160,2013-04-20 03:51:00
11:51 PM,46.0,34.0,63,30.22,10.0,SSE,4.6,-,N/A,,Clear,160,2013-04-20 04:51:00